STARLINK-11254, 60731

Orbit data source: Space-Track

STARLINK-11254, 60731 is a payload satellite owned by SpaceX/Seattle (US) in LEO that was launched on Wed, 28 Aug 2024 UTC via an FALCON 9 launch vehicle from the Air Force Eastern Test Range (AFETR). Payload-class satellites include a variety of spacecraft equipped with specific instruments for various scientific and technological missions. These include communications satellites like Starlink; space stations such as the ISS; scientific satellites like the Hubble; Earth observation satellites from companies like Planet Labs, Umbra, and HawkEye 360; GPS; miniature CubeSats for education and research; and military/defense satellites.

Loading next visibility...
Identifier
60731, 2024-152M
Orbit
LEO
Last TLE update
20 hours ago
Origin
Manufacturer
SpaceX/Seattle
Mission
Operational Commercial Communications
Bus & Motor
STARLINK V2M, Unknown motor
Mass
730 kg wet, ~700 kg dry
Launch date (UTC)
2024-08-28 (8 months ago)
Launch vehicle
FALCON 9
Launch site
Air Force Eastern Test Range (AFETR)
Object type
Payload
Rocket body
Debris
Shape & HBR
Box + 2 Pan, 29 m
Radar Cross Section
36.964 m², Large (>1 m²)

Expand to show TLE details & history

TLE from 20 hours ago
0 STARLINK-11254
1 60731U 24152M   25128.42329603  .00000730  00000-0  10880-4 0  9999
2 60731  53.1578 180.8039 0001102  87.0533 273.0611 15.69710880 40905
Epoch: 2025-05-08T10:09Z
Definitive object data (Epoch: 2025-05-08T10:09:32.777Z)
Latitude
Longitude
161.92333°
Altitude
360.599 km
Speed
7.694 km/s
True Right ascension
12h 03m 12s
True Declination
0° 00' 00"
Sunlit
Object was in full shadow at TLE epoch
Visualization TLE readout
Latitude
34.12179°
Longitude
-52.59747°
Altitude
361.613 km
Speed
7.697 km/s
Apparent Right ascension
00h 03m 29s
Apparent Declination
-2° 07' 59"
Sunlit
Object is in daylight
Visualization observer readout
Local Sidereal Time
14:44:48
Azimuth
54.563° ENE
Elevation
-37.457°
Doppler factor
1
Orbital elements
Apogee altitude
360.728 km
Perigee altitude
359.243 km
Semi-major axis
6,738.122 km
Eccentricity
0.0001102
Inclination
53.1578°
RAAN
180.8039°
Arg. of periapsis
87.0533°
True anomaly
273.04849°
Mean anomaly
273.0611°
Eccentric anomaly
273.05479°
Mean motion
3.92405 °/min
BSTAR
0.00001088
Orbital period
91.74 mins
Loading maneuver chart data...
Loading SW <> Apogee altitude chart data...
Loading historical data...
Loading historical data...
Loading historical data...
Loading historical data...
Loading historical data...
Loading historical data...
Loading historical data...

STARLINK-11254 Visibility forecast

Observer location: undefined°, undefined°

Span
Click to sort rows by Start time (UTC) header in descending order
Start Az.
Max El. time (UTC)
Max El. Az.
Max El.
End time (UTC)
End Az.
4 mins2025-05-09 12:37:56.972Z323.217° NNW2025-05-09 12:39:56.972Z56.229° ENE39.433°2025-05-09 12:41:56.972Z114.536° SE
4 mins2025-05-10 05:06:56.972Z185.104° SSW2025-05-10 05:08:56.972Z125.034° SE24.89°2025-05-10 05:10:56.972Z75.514° E
|